N624ML CYTZ-CYQG

Flight info

Callsign N624ML
Flight time 1h 16m
Altitude 1500
Route VFR
Aircraft EC35/L-G/C

Departure

Time 2026-04-27 15:28
Airport Billy Bishop Toronto City Airport (CYTZ)

Arrival

Time 2026-04-27 16:44
Airport Windsor International Airport (CYQG)
Time Latitude Longitude Altitude Speed Heading
2026-04-27 15:15 43.63057 -79.39991 236 ft 0 kts 176°
2026-04-27 15:27 43.63055 -79.39996 263 ft 3 kts 179°
2026-04-27 15:27 43.63029 -79.39999 357 ft 17 kts 207°
2026-04-27 15:27 43.62964 -79.40557 354 ft 96 kts 261°
2026-04-27 15:27 43.62825 -79.41547 487 ft 110 kts 251°
2026-04-27 15:28 43.62603 -79.42581 656 ft 110 kts 250°
2026-04-27 15:28 43.62403 -79.43562 946 ft 103 kts 251°
2026-04-27 15:28 43.62191 -79.44486 1236 ft 101 kts 247°
2026-04-27 15:28 43.61946 -79.45393 1448 ft 105 kts 238°
2026-04-27 15:29 43.61538 -79.46315 1490 ft 116 kts 232°
2026-04-27 15:29 43.61066 -79.47302 1455 ft 125 kts 232°
2026-04-27 15:29 43.60580 -79.48307 1464 ft 128 kts 233°
2026-04-27 15:29 43.60089 -79.49314 1478 ft 127 kts 232°
2026-04-27 15:30 43.59587 -79.50347 1506 ft 136 kts 231°
2026-04-27 15:30 43.59050 -79.51472 1497 ft 139 kts 232°
2026-04-27 15:30 43.58521 -79.52581 1496 ft 140 kts 232°
2026-04-27 15:30 43.57984 -79.53717 1500 ft 140 kts 231°
2026-04-27 15:31 43.57462 -79.54832 1500 ft 139 kts 232°
2026-04-27 15:31 43.56920 -79.55970 1498 ft 141 kts 231°
2026-04-27 15:31 43.56331 -79.57027 1502 ft 138 kts 226°
2026-04-27 15:31 43.55733 -79.58075 1496 ft 137 kts 223°
2026-04-27 15:32 43.55061 -79.58987 1512 ft 135 kts 219°
2026-04-27 15:32 43.54340 -79.59923 1495 ft 138 kts 218°
2026-04-27 15:32 43.53647 -79.60818 1497 ft 136 kts 218°
2026-04-27 15:32 43.52956 -79.61701 1489 ft 135 kts 217°
2026-04-27 15:33 43.52272 -79.62590 1490 ft 137 kts 217°
2026-04-27 15:33 43.51570 -79.63496 1488 ft 136 kts 218°
2026-04-27 15:33 43.50887 -79.64381 1490 ft 137 kts 218°
2026-04-27 15:33 43.50189 -79.65292 1505 ft 136 kts 217°
2026-04-27 15:34 43.49500 -79.66199 1487 ft 137 kts 217°
2026-04-27 15:34 43.48813 -79.67105 1492 ft 135 kts 217°
2026-04-27 15:34 43.48137 -79.67996 1495 ft 133 kts 216°
2026-04-27 15:34 43.47461 -79.68888 1474 ft 136 kts 216°
2026-04-27 15:35 43.46783 -79.69782 1491 ft 136 kts 217°
2026-04-27 15:35 43.46096 -79.70675 1484 ft 134 kts 217°
2026-04-27 15:35 43.45399 -79.71552 1474 ft 137 kts 216°
2026-04-27 15:35 43.44724 -79.72431 1485 ft 131 kts 217°
2026-04-27 15:36 43.44054 -79.73294 1478 ft 134 kts 217°
2026-04-27 15:36 43.43360 -79.74178 1480 ft 136 kts 216°
2026-04-27 15:36 43.42655 -79.75056 1463 ft 137 kts 217°
2026-04-27 15:36 43.41950 -79.75950 1477 ft 137 kts 218°
2026-04-27 15:37 43.41249 -79.76833 1477 ft 138 kts 217°
2026-04-27 15:37 43.40543 -79.77726 1475 ft 135 kts 218°
2026-04-27 15:37 43.39850 -79.78603 1459 ft 136 kts 217°
2026-04-27 15:37 43.39146 -79.79473 1470 ft 137 kts 217°
2026-04-27 15:38 43.38432 -79.80344 1468 ft 138 kts 217°
2026-04-27 15:38 43.37717 -79.81220 1474 ft 136 kts 217°
2026-04-27 15:38 43.37012 -79.82090 1476 ft 136 kts 217°
2026-04-27 15:38 43.36303 -79.82949 1502 ft 136 kts 216°
2026-04-27 15:39 43.35589 -79.83821 1501 ft 137 kts 217°
2026-04-27 15:39 43.34872 -79.84691 1503 ft 138 kts 218°
2026-04-27 15:39 43.34154 -79.85556 1506 ft 139 kts 217°
2026-04-27 15:39 43.33428 -79.86442 1503 ft 139 kts 220°
2026-04-27 15:40 43.32936 -79.87609 1521 ft 141 kts 243°
2026-04-27 15:40 43.32490 -79.88804 1512 ft 142 kts 240°
2026-04-27 15:40 43.32045 -79.90025 1508 ft 143 kts 244°
2026-04-27 15:40 43.31639 -79.91265 1504 ft 143 kts 244°
2026-04-27 15:41 43.31237 -79.92517 1503 ft 142 kts 245°
2026-04-27 15:41 43.30837 -79.93758 1505 ft 141 kts 243°
2026-04-27 15:41 43.30437 -79.94997 1505 ft 142 kts 244°
2026-04-27 15:41 43.30037 -79.96251 1503 ft 142 kts 244°
2026-04-27 15:42 43.29631 -79.97486 1477 ft 142 kts 244°
2026-04-27 15:42 43.29235 -79.98718 1522 ft 142 kts 243°
2026-04-27 15:42 43.28818 -79.99963 1498 ft 144 kts 240°
2026-04-27 15:42 43.28398 -80.01218 1497 ft 144 kts 242°
2026-04-27 15:43 43.27993 -80.02463 1506 ft 144 kts 243°
2026-04-27 15:43 43.27586 -80.03722 1499 ft 143 kts 242°
2026-04-27 15:43 43.27191 -80.04964 1503 ft 143 kts 245°
2026-04-27 15:43 43.26794 -80.06224 1503 ft 143 kts 243°
2026-04-27 15:44 43.26388 -80.07481 1501 ft 144 kts 243°
2026-04-27 15:44 43.25984 -80.08723 1494 ft 144 kts 244°
2026-04-27 15:44 43.25574 -80.09986 1492 ft 144 kts 243°
2026-04-27 15:44 43.25162 -80.11253 1486 ft 144 kts 242°
2026-04-27 15:45 43.24755 -80.12496 1484 ft 144 kts 242°
2026-04-27 15:45 43.24348 -80.13750 1486 ft 144 kts 243°
2026-04-27 15:45 43.23938 -80.15015 1487 ft 145 kts 242°
2026-04-27 15:45 43.23529 -80.16274 1484 ft 145 kts 244°
2026-04-27 15:46 43.23117 -80.17531 1484 ft 144 kts 242°
2026-04-27 15:46 43.22702 -80.18782 1484 ft 143 kts 242°
2026-04-27 15:46 43.22291 -80.20022 1481 ft 143 kts 242°
2026-04-27 15:46 43.21882 -80.21270 1476 ft 144 kts 243°
2026-04-27 15:47 43.21468 -80.22508 1484 ft 143 kts 239°
2026-04-27 15:47 43.21038 -80.23752 1480 ft 143 kts 241°
2026-04-27 15:47 43.20634 -80.25005 1472 ft 145 kts 244°
2026-04-27 15:47 43.20243 -80.26261 1481 ft 144 kts 243°
2026-04-27 15:48 43.19833 -80.27534 1477 ft 145 kts 243°
2026-04-27 15:48 43.19427 -80.28788 1478 ft 145 kts 241°
2026-04-27 15:48 43.19011 -80.30045 1479 ft 145 kts 242°
2026-04-27 15:49 43.18189 -80.32552 1475 ft 145 kts 242°
2026-04-27 15:49 43.17775 -80.33816 1492 ft 144 kts 242°
2026-04-27 15:49 43.17356 -80.35077 1471 ft 144 kts 241°
2026-04-27 15:49 43.16946 -80.36327 1479 ft 144 kts 242°
2026-04-27 15:50 43.16536 -80.37579 1473 ft 146 kts 243°
2026-04-27 15:50 43.16127 -80.38859 1470 ft 148 kts 243°
2026-04-27 15:50 43.15702 -80.40160 1469 ft 147 kts 240°
2026-04-27 15:50 43.15269 -80.41411 1471 ft 144 kts 238°
2026-04-27 15:51 43.14841 -80.42663 1469 ft 145 kts 240°
2026-04-27 15:51 43.14430 -80.43918 1469 ft 144 kts 241°
2026-04-27 15:51 43.14024 -80.45181 1465 ft 147 kts 242°
2026-04-27 15:51 43.13607 -80.46465 1463 ft 148 kts 242°
2026-04-27 15:52 43.13182 -80.47751 1461 ft 149 kts 240°
2026-04-27 15:52 43.12754 -80.49031 1463 ft 148 kts 240°
2026-04-27 15:52 43.12330 -80.50314 1474 ft 147 kts 241°
2026-04-27 15:52 43.11911 -80.51583 1464 ft 146 kts 240°
2026-04-27 15:53 43.11494 -80.52837 1474 ft 144 kts 240°
2026-04-27 15:53 43.11077 -80.54089 1471 ft 145 kts 240°
2026-04-27 15:53 43.10655 -80.55355 1461 ft 145 kts 240°
2026-04-27 15:53 43.10232 -80.56606 1464 ft 145 kts 239°
2026-04-27 15:54 43.09804 -80.57842 1464 ft 145 kts 239°
2026-04-27 15:54 43.09385 -80.59111 1464 ft 145 kts 240°
2026-04-27 15:54 43.08963 -80.60375 1465 ft 145 kts 239°
2026-04-27 15:54 43.08538 -80.61636 1461 ft 146 kts 239°
2026-04-27 15:55 43.08120 -80.62903 1465 ft 145 kts 239°
2026-04-27 15:55 43.07842 -80.63741 1466 ft 145 kts 239°
2026-04-27 15:55 43.07282 -80.65421 1463 ft 146 kts 238°
2026-04-27 15:55 43.06860 -80.66681 1464 ft 145 kts 239°
2026-04-27 15:56 43.06452 -80.67953 1453 ft 145 kts 239°
2026-04-27 15:56 43.06044 -80.69216 1461 ft 145 kts 240°
2026-04-27 15:56 43.05633 -80.70468 1451 ft 145 kts 239°
2026-04-27 15:56 43.05221 -80.71707 1459 ft 143 kts 240°
2026-04-27 15:57 43.04808 -80.72952 1456 ft 143 kts 240°
2026-04-27 15:57 43.04396 -80.74190 1470 ft 143 kts 239°
2026-04-27 15:57 43.03984 -80.75424 1467 ft 144 kts 239°
2026-04-27 15:57 43.03567 -80.76678 1459 ft 144 kts 239°
2026-04-27 15:58 43.03146 -80.77926 1456 ft 144 kts 238°
2026-04-27 15:58 43.02730 -80.79153 1453 ft 143 kts 237°
2026-04-27 15:58 43.02303 -80.80381 1463 ft 143 kts 237°
2026-04-27 15:58 43.01889 -80.81622 1464 ft 144 kts 239°
2026-04-27 15:59 43.01477 -80.82877 1465 ft 144 kts 238°
2026-04-27 15:59 43.01065 -80.84121 1461 ft 144 kts 238°
2026-04-27 15:59 43.00639 -80.85353 1460 ft 144 kts 237°
2026-04-27 15:59 43.00213 -80.86591 1465 ft 144 kts 236°
2026-04-27 16:00 42.99786 -80.87836 1465 ft 144 kts 237°
2026-04-27 16:00 42.99510 -80.88654 1467 ft 144 kts 237°
2026-04-27 16:00 42.98950 -80.90329 1467 ft 144 kts 237°
2026-04-27 16:00 42.98536 -80.91567 1469 ft 144 kts 237°
2026-04-27 16:01 42.98121 -80.92805 1472 ft 144 kts 237°
2026-04-27 16:01 42.97702 -80.94053 1468 ft 144 kts 238°
2026-04-27 16:01 42.97297 -80.95305 1466 ft 144 kts 240°
2026-04-27 16:01 42.96899 -80.96553 1472 ft 144 kts 239°
2026-04-27 16:02 42.96489 -80.97782 1501 ft 142 kts 237°
2026-04-27 16:02 42.96060 -80.99002 1491 ft 143 kts 238°
2026-04-27 16:02 42.95651 -81.00242 1492 ft 143 kts 239°
2026-04-27 16:02 42.95250 -81.01472 1490 ft 142 kts 239°
2026-04-27 16:03 42.94843 -81.02698 1496 ft 142 kts 239°
2026-04-27 16:03 42.94429 -81.03922 1498 ft 142 kts 239°
2026-04-27 16:03 42.94009 -81.05160 1499 ft 142 kts 239°
2026-04-27 16:03 42.93596 -81.06369 1498 ft 143 kts 237°
2026-04-27 16:04 42.93169 -81.07590 1496 ft 142 kts 236°
2026-04-27 16:04 42.92746 -81.08820 1495 ft 142 kts 239°
2026-04-27 16:04 42.92342 -81.10039 1499 ft 142 kts 238°
2026-04-27 16:04 42.91930 -81.11261 1497 ft 142 kts 237°
2026-04-27 16:05 42.91507 -81.12497 1493 ft 142 kts 237°
2026-04-27 16:05 42.91093 -81.13704 1493 ft 143 kts 237°
2026-04-27 16:05 42.90667 -81.14952 1498 ft 143 kts 236°
2026-04-27 16:05 42.90243 -81.16175 1494 ft 144 kts 237°
2026-04-27 16:06 42.89817 -81.17423 1495 ft 144 kts 236°
2026-04-27 16:06 42.89399 -81.18644 1503 ft 144 kts 236°
2026-04-27 16:06 42.88975 -81.19898 1500 ft 144 kts 237°
2026-04-27 16:06 42.88561 -81.21121 1502 ft 143 kts 236°
2026-04-27 16:07 42.88139 -81.22358 1508 ft 143 kts 237°
2026-04-27 16:07 42.87730 -81.23596 1505 ft 143 kts 238°
2026-04-27 16:07 42.87321 -81.24855 1498 ft 144 kts 238°
2026-04-27 16:07 42.86913 -81.26083 1496 ft 143 kts 239°
2026-04-27 16:08 42.86329 -81.27136 1506 ft 136 kts 220°
2026-04-27 16:08 42.85695 -81.28108 1488 ft 139 kts 224°
2026-04-27 16:08 42.85146 -81.29208 1487 ft 140 kts 229°
2026-04-27 16:08 42.84622 -81.30337 1482 ft 140 kts 229°
2026-04-27 16:09 42.84104 -81.31461 1491 ft 140 kts 229°
2026-04-27 16:09 42.83056 -81.33713 1484 ft 141 kts 229°
2026-04-27 16:09 42.82532 -81.34829 1482 ft 141 kts 229°
2026-04-27 16:10 42.81479 -81.37082 1488 ft 141 kts 229°
2026-04-27 16:10 42.80421 -81.39352 1488 ft 142 kts 229°
2026-04-27 16:11 42.79900 -81.40475 1485 ft 142 kts 229°
2026-04-27 16:11 42.78849 -81.42751 1476 ft 141 kts 229°
2026-04-27 16:12 42.77799 -81.45019 1480 ft 141 kts 229°
2026-04-27 16:12 42.77279 -81.46149 1478 ft 142 kts 229°
2026-04-27 16:12 42.76237 -81.48432 1473 ft 142 kts 229°
2026-04-27 16:13 42.75716 -81.49586 1475 ft 142 kts 229°
2026-04-27 16:13 42.74668 -81.51867 1471 ft 142 kts 229°
2026-04-27 16:13 42.74152 -81.52994 1473 ft 142 kts 229°
2026-04-27 16:14 42.73109 -81.55299 1473 ft 142 kts 229°
2026-04-27 16:14 42.72070 -81.57591 1469 ft 142 kts 229°
2026-04-27 16:15 42.71032 -81.59875 1469 ft 142 kts 230°
2026-04-27 16:15 42.69999 -81.62157 1474 ft 142 kts 229°
2026-04-27 16:16 42.68962 -81.64457 1472 ft 142 kts 230°
2026-04-27 16:16 42.67934 -81.66766 1468 ft 142 kts 228°
2026-04-27 16:17 42.66917 -81.69066 1460 ft 141 kts 229°
2026-04-27 16:17 42.65894 -81.71355 1468 ft 142 kts 228°
2026-04-27 16:18 42.64860 -81.73636 1458 ft 142 kts 229°
2026-04-27 16:18 42.63827 -81.75938 1456 ft 142 kts 228°
2026-04-27 16:19 42.63326 -81.77084 1457 ft 143 kts 229°
2026-04-27 16:19 42.62816 -81.78240 1461 ft 142 kts 229°
2026-04-27 16:20 42.61286 -81.81696 1462 ft 142 kts 228°
2026-04-27 16:20 42.60776 -81.82842 1457 ft 142 kts 228°
2026-04-27 16:20 42.59761 -81.85130 1449 ft 141 kts 230°
2026-04-27 16:21 42.59254 -81.86262 1454 ft 141 kts 229°
2026-04-27 16:21 42.57740 -81.89680 1468 ft 142 kts 229°
2026-04-27 16:22 42.57230 -81.90855 1464 ft 142 kts 229°
2026-04-27 16:22 42.56173 -81.93100 1442 ft 141 kts 227°
2026-04-27 16:22 42.55621 -81.94201 1452 ft 141 kts 225°
2026-04-27 16:23 42.55065 -81.95324 1456 ft 141 kts 226°
2026-04-27 16:23 42.53956 -81.97561 1444 ft 141 kts 226°
2026-04-27 16:23 42.53407 -81.98668 1452 ft 141 kts 226°
2026-04-27 16:24 42.52850 -81.99789 1450 ft 141 kts 226°
2026-04-27 16:24 42.51755 -82.01966 1448 ft 140 kts 228°
2026-04-27 16:25 42.50663 -82.04155 1451 ft 139 kts 227°
2026-04-27 16:25 42.49572 -82.06350 1452 ft 140 kts 226°
2026-04-27 16:26 42.48500 -82.08547 1444 ft 139 kts 226°
2026-04-27 16:26 42.47444 -82.10729 1457 ft 139 kts 226°
2026-04-27 16:27 42.46383 -82.12901 1456 ft 138 kts 227°
2026-04-27 16:27 42.44794 -82.16131 1452 ft 137 kts 226°
2026-04-27 16:28 42.43745 -82.18320 1449 ft 138 kts 227°
2026-04-27 16:28 42.42686 -82.20482 1441 ft 138 kts 226°
2026-04-27 16:29 42.41093 -82.23726 1444 ft 138 kts 227°
2026-04-27 16:30 42.40020 -82.25888 1449 ft 138 kts 228°
2026-04-27 16:30 42.38963 -82.28050 1444 ft 137 kts 228°
2026-04-27 16:31 42.37373 -82.31270 1450 ft 137 kts 226°
2026-04-27 16:31 42.36302 -82.33424 1415 ft 140 kts 227°
2026-04-27 16:32 42.35281 -82.35516 1452 ft 132 kts 228°
2026-04-27 16:32 42.34762 -82.36560 1452 ft 133 kts 227°
2026-04-27 16:33 42.33735 -82.38674 1486 ft 132 kts 227°
2026-04-27 16:33 42.33221 -82.39716 1489 ft 134 kts 227°
2026-04-27 16:33 42.32707 -82.40756 1493 ft 134 kts 227°
2026-04-27 16:33 42.32185 -82.41814 1482 ft 136 kts 227°
2026-04-27 16:34 42.31659 -82.42880 1488 ft 135 kts 227°
2026-04-27 16:34 42.31133 -82.43955 1487 ft 139 kts 228°
2026-04-27 16:34 42.30724 -82.45176 1488 ft 144 kts 244°
2026-04-27 16:34 42.30428 -82.46469 1491 ft 146 kts 249°
2026-04-27 16:35 42.30172 -82.47810 1500 ft 144 kts 247°
2026-04-27 16:35 42.29936 -82.49107 1488 ft 143 kts 250°
2026-04-27 16:35 42.29434 -82.51723 1485 ft 145 kts 249°
2026-04-27 16:36 42.29178 -82.53033 1485 ft 146 kts 248°
2026-04-27 16:36 42.28920 -82.54358 1479 ft 146 kts 249°
2026-04-27 16:36 42.28704 -82.55698 1478 ft 146 kts 252°
2026-04-27 16:36 42.28484 -82.57044 1478 ft 146 kts 252°
2026-04-27 16:37 42.28263 -82.58386 1481 ft 146 kts 251°
2026-04-27 16:37 42.28050 -82.59714 1482 ft 143 kts 251°
2026-04-27 16:37 42.27842 -82.61036 1476 ft 143 kts 252°
2026-04-27 16:37 42.27629 -82.62361 1476 ft 143 kts 252°
2026-04-27 16:38 42.27421 -82.63656 1480 ft 142 kts 251°
2026-04-27 16:38 42.27209 -82.64970 1478 ft 144 kts 251°
2026-04-27 16:38 42.27012 -82.66290 1476 ft 143 kts 255°
2026-04-27 16:38 42.26887 -82.67640 1477 ft 145 kts 260°
2026-04-27 16:39 42.26797 -82.68990 1480 ft 143 kts 259°
2026-04-27 16:39 42.26710 -82.70333 1478 ft 145 kts 259°
2026-04-27 16:39 42.26621 -82.71686 1483 ft 145 kts 259°
2026-04-27 16:39 42.26529 -82.73047 1481 ft 145 kts 259°
2026-04-27 16:40 42.26440 -82.74412 1475 ft 145 kts 259°
2026-04-27 16:40 42.26349 -82.75756 1480 ft 145 kts 259°
2026-04-27 16:40 42.26274 -82.77123 1455 ft 148 kts 264°
2026-04-27 16:40 42.26388 -82.78516 1384 ft 151 kts 273°
2026-04-27 16:41 42.26511 -82.79933 1284 ft 152 kts 273°
2026-04-27 16:41 42.26622 -82.81358 1199 ft 152 kts 270°
2026-04-27 16:41 42.26656 -82.82767 1092 ft 153 kts 268°
2026-04-27 16:41 42.26679 -82.84180 1083 ft 147 kts 265°
2026-04-27 16:42 42.26675 -82.85555 1099 ft 142 kts 262°
2026-04-27 16:42 42.26633 -82.86880 1056 ft 143 kts 263°
2026-04-27 16:42 42.26578 -82.88227 1072 ft 144 kts 263°
2026-04-27 16:42 42.26524 -82.89562 1107 ft 143 kts 262°
2026-04-27 16:43 42.26472 -82.90906 1157 ft 143 kts 262°
2026-04-27 16:43 42.26423 -82.92230 1206 ft 140 kts 262°
2026-04-27 16:43 42.26378 -82.93536 1260 ft 140 kts 262°
2026-04-27 16:43 42.26326 -82.94840 1284 ft 140 kts 260°
2026-04-27 16:44 42.26360 -82.96168 1313 ft 143 kts 278°
2026-04-27 16:44 42.26722 -82.97407 1198 ft 133 kts 311°
2026-04-27 16:44 42.27340 -82.97405 1096 ft 86 kts 86°
2026-04-27 16:44 42.27228 -82.96751 893 ft 48 kts 115°
2026-04-27 16:45 42.27060 -82.96587 720 ft 32 kts 173°
2026-04-27 16:45 42.26934 -82.96555 648 ft 9 kts 175°
2026-04-27 16:45 42.26889 -82.96555 627 ft 5 kts 219°
2026-04-27 16:45 42.26875 -82.96569 623 ft 1 kts 248°
2026-04-27 16:46 42.26873 -82.96572 621 ft 0 kts 245°
2026-04-27 16:46 42.26874 -82.96572 621 ft 0 kts 245°